Regional Weather Roundup
Issued by NWS Huntsville, AL

Home | Current Version | Previous Version | Text Only | Print | Product List | Glossary On
Versions: 1 2 3 4 5 6 7 8 9 10 11 12 13 14 15 16 17 18 19 20 21 22 23 24 25 26 27 28 29 30 31 32 33 34 35 36 37 38 39 40 41 42 43 44 45 46 47 48 49 50
000
ASUS44 KHUN 201410
RWRHUN

WEATHER ROUNDUP FOR THE TENNESSEE VALLEY
NATIONAL WEATHER SERVICE HUNTSVILLE AL
900 AM CDT SAT SEP 20 2014

ALZ001>004-201500-
NORTHWEST ALABAMA

CITY           SKY/WX    TMP DP  RH WIND       PRES   REMARKS
SHOALS AIRPORT SUNNY     73  64  73 SE10      30.15R
SHOALS TVA RES   N/A     70 N/A N/A MISG        N/A
$$

ALZ005>007-016-201500-
NORTH CENTRAL ALABAMA

CITY           SKY/WX    TMP DP  RH WIND       PRES   REMARKS
DECATUR AP     SUNNY     74  64  71 SE9       30.15R
HUNTSVILLE AP  SUNNY     75  64  68 SE12      30.14S
HUN NWS/UAH      N/A     74  61  63 SE6         N/A
MERIDIANVILLE  SUNNY     73  59  60 SE6       30.15S
VINEMONT AP    FAIR      71  64  80 SE8       30.16S
$$

ALZ008>010-201500-
NORTHEAST ALABAMA

CITY           SKY/WX    TMP DP  RH WIND       PRES   REMARKS
ALBERTVILLE    SUNNY     70  68  94 E9        30.15S
FORT PAYNE     PTSUNNY   72  59  64 NE6       30.16S
SCOTTSBORO AP  SUNNY     73  64  73 NE3       30.16F
SCOTTSBORO HCN   N/A     70 N/A N/A MISG        N/A
VALLEY HEAD      N/A     70 N/A N/A MISG        N/A
$$

TNZ076-096-097-201500-
SOUTHEASTERN MIDDLE TENNESSEE

CITY           SKY/WX    TMP DP  RH WIND       PRES   REMARKS
FAYETTEVILLE   SUNNY     72  63  73 SE8       30.16S
TULLAHOMA      SUNNY     70  61  73 S7        30.18R
WINCHESTER     SUNNY     73  63  68 SE14      30.16S
$$

...SURROUNDING SITES...

CITY           SKY/WX    TMP DP  RH WIND       PRES   REMARKS
ATLANTA        PTSUNNY   70  63  78 E13       30.17R
ANNISTON       CLOUDY    70  64  81 E12       30.14R
BIRMINGHAM     MOSUNNY   74  65  73 E6        30.15R
CHATTANOOGA    SUNNY     71  61  70 CALM      30.18S
CORINTH        FAIR      73  66  78 SE10      30.10S
DALTON         SUNNY     70  63  78 CALM      30.18R
GADSDEN        PTSUNNY   70  63  78 E9        30.15S
GOLDEN TRNGL   MOSUNNY   73  64  73 SE12      30.10R
HALEYVILLE     FAIR      72  65  78 E8        30.17R
JACKSON TN     SUNNY     74  67  78 S6        30.11R
LEWISBURG      FAIR      74  64  70 S9        30.14R
MEMPHIS        SUNNY     77  66  68 SE7       30.08R
MURFREESBORO   FAIR      73  63  71 S6        30.14S
NASHVILLE      MOSUNNY   75  63  66 S13       30.14S
OXFORD MS      FAIR      72  66  83 SE7       30.10R
ROME           SUNNY     72  63  73 E6        30.16S
SAVANNAH       SUNNY     73  70  88 SE7       30.12R
TUPELO         SUNNY     74  66  76 S13       30.10R
TUSCALOOSA     SUNNY     75  66  73 E9        30.10S
$$

...GULF COAST WEATHER...

CITY           SKY/WX    TMP DP  RH WIND       PRES   REMARKS
GULFPORT       SUNNY     77  68  73 NE10      30.00R
PASCAGOULA     SUNNY     76  69  79 E9        30.00S
MOBILE         MOSUNNY   74  69  85 E8        30.03R
GULF SHORES    SUNNY     76  69  79 E7        30.00R
PENSACOLA      MOSUNNY   76  70  82 E10       30.00R
DESTIN         CLOUDY    74  69  85 NE12      30.01R
PANAMA CITY    CLOUDY    71  71 100 NE9       30.01R
APPALACHICOLA  CLOUDY    74  69  85 NE10      29.99R
$$



USA.gov is the U.S. government's official web portal to all federal, state and local government web resources and services.